Location: ????
(30.2663°N, 31.2484°E)
Time: 11:48:06
(UTC+00:00)

CZ-2C R/B - Visible Passes

Search period start: 28 March 2023 00:00
Search period end: 07 April 2023 00:00
Orbit: 666 x 783 km, 98.3° (Epoch: 27 March)

Date Brightness Start Highest point End Pass type
(mag) Time Alt. Az. Time Alt. Az. Time Alt. Az.
28 Mar 3.7 01:34:15 10° N 01:36:51 31° N 01:36:51 31° N visible
29 Mar 4.6 00:46:00 10° NNE 00:47:54 22° NE 00:47:54 22° NE visible
29 Mar 4.1 02:25:09 10° NNW 02:27:16 17° NW 02:27:16 17° NW visible
30 Mar 3.4 01:35:21 10° N 01:38:20 36° NNW 01:38:20 36° NNW visible
31 Mar 4.4 00:47:03 10° NNE 00:49:23 25° NE 00:49:23 25° NE visible
31 Mar 4.1 02:26:17 10° NNW 02:28:45 17° WNW 02:28:45 17° WNW visible
01 Apr 3.2 01:36:26 10° N 01:39:48 41° NNW 01:39:48 41° NNW visible
02 Apr 4.2 00:48:06 10° NNE 00:50:51 29° NE 00:50:51 29° NE visible
02 Apr 4.0 02:27:24 10° NNW 02:30:13 17° WNW 02:30:13 17° WNW visible
03 Apr 3.0 01:37:31 10° N 01:41:15 46° NNW 01:41:15 46° NNW visible
04 Apr 4.0 00:49:10 10° NNE 00:52:17 32° ENE 00:52:17 32° ENE visible
04 Apr 4.0 02:28:31 10° NNW 02:31:39 17° WNW 02:31:39 17° WNW visible
05 Apr 5.4 00:03:05 10° ENE 00:03:20 10° ENE 00:03:20 10° ENE visible
05 Apr 2.8 01:38:36 10° N 01:42:42 50° NW 01:42:42 50° NW visible
06 Apr 3.8 00:50:12 10° NNE 00:53:43 36° ENE 00:53:43 36° ENE visible
06 Apr 4.0 02:29:38 10° NNW 02:32:46 17° WNW 02:33:05 17° WNW visible
